TimeCDT,TemperatureF,Dew PointF,Humidity,Sea Level PressureIn,VisibilityMPH,Wind Direction,Wind SpeedMPH,Gust SpeedMPH,PrecipitationIn,Events,Conditions,WindDirDegrees,DateUTC
12:53 AM,59.0,54.0,83,29.96,10.0,SSE,5.8,-,N/A,,Clear,160,2013-10-12 05:53:00
1:53 AM,60.1,55.9,86,29.96,10.0,South,6.9,-,N/A,,Clear,170,2013-10-12 06:53:00
2:53 AM,60.1,55.0,83,29.96,10.0,South,8.1,-,N/A,,Clear,170,2013-10-12 07:53:00
3:53 AM,60.1,55.9,86,29.95,10.0,South,9.2,-,N/A,,Clear,180,2013-10-12 08:53:00
4:53 AM,59.0,55.0,87,29.94,10.0,SSE,9.2,-,N/A,,Clear,160,2013-10-12 09:53:00
5:53 AM,59.0,55.0,87,29.94,10.0,South,9.2,-,N/A,,Clear,170,2013-10-12 10:53:00
6:53 AM,60.1,54.0,80,29.94,10.0,South,11.5,-,N/A,,Partly Cloudy,170,2013-10-12 11:53:00
7:53 AM,61.0,55.0,81,29.94,10.0,South,13.8,-,N/A,,Mostly Cloudy,170,2013-10-12 12:53:00
8:53 AM,62.1,55.0,78,29.96,10.0,South,15.0,20.7,N/A,,Overcast,170,2013-10-12 13:53:00
9:53 AM,62.1,55.9,80,29.95,10.0,South,9.2,-,0.00,Thunderstorm,Thunderstorm,170,2013-10-12 14:53:00
10:14 AM,60.8,55.4,82,29.95,10.0,South,9.2,-,N/A,,Overcast,170,2013-10-12 15:14:00
10:53 AM,61.0,55.9,83,29.96,10.0,South,9.2,-,N/A,,Overcast,180,2013-10-12 15:53:00
11:00 AM,60.8,55.4,82,29.96,10.0,South,10.4,-,N/A,,Overcast,180,2013-10-12 16:00:00
11:53 AM,62.1,57.0,84,29.95,9.0,South,10.4,-,0.00,Rain,Light Rain,170,2013-10-12 16:53:00
12:00 PM,62.6,57.2,82,29.96,9.0,South,13.8,18.4,0.00,Rain-Thunderstorm,Light Thunderstorms and Rain,180,2013-10-12 17:00:00
12:06 PM,60.8,57.2,88,29.95,0.8,South,11.5,18.4,0.31,Rain-Thunderstorm,Heavy Thunderstorms and Rain,180,2013-10-12 17:06:00
12:20 PM,60.8,59.0,94,29.93,2.0,SSE,5.8,-,0.51,Rain-Thunderstorm,Light Thunderstorms and Rain,150,2013-10-12 17:20:00
12:27 PM,60.8,59.0,94,29.93,7.0,SSE,6.9,-,0.51,Thunderstorm,Thunderstorm,160,2013-10-12 17:27:00
12:39 PM,60.8,59.0,94,29.93,8.0,South,6.9,-,0.51,,Overcast,180,2013-10-12 17:39:00
12:53 PM,61.0,57.9,90,29.94,2.5,South,11.5,-,0.57,Rain,Rain,180,2013-10-12 17:53:00
1:02 PM,60.8,59.0,94,29.93,1.8,South,11.5,-,0.09,Rain,Rain,180,2013-10-12 18:02:00
1:09 PM,60.8,59.0,94,29.93,3.0,South,10.4,-,0.09,Rain,Light Rain,180,2013-10-12 18:09:00
1:23 PM,60.8,59.0,94,29.93,6.0,South,10.4,-,0.10,Rain-Thunderstorm,Light Thunderstorms and Rain,170,2013-10-12 18:23:00
1:38 PM,60.8,60.8,100,29.93,5.0,South,9.2,-,0.11,Rain,Light Rain,180,2013-10-12 18:38:00
1:53 PM,61.0,60.1,97,29.92,4.0,South,9.2,-,0.11,Rain,Light Rain,190,2013-10-12 18:53:00
2:15 PM,60.8,60.8,100,29.94,4.0,South,9.2,-,0.01,Rain,Light Rain,180,2013-10-12 19:15:00
2:53 PM,62.1,61.0,96,29.94,4.0,South,9.2,-,0.01,,Overcast,190,2013-10-12 19:53:00
3:18 PM,62.6,60.8,94,29.93,4.0,SSW,9.2,-,N/A,,Overcast,200,2013-10-12 20:18:00
3:53 PM,64.0,63.0,96,29.94,5.0,SSW,11.5,-,0.00,,Mostly Cloudy,200,2013-10-12 20:53:00
4:53 PM,64.9,62.1,90,29.95,8.0,South,10.4,-,N/A,,Scattered Clouds,190,2013-10-12 21:53:00
5:53 PM,62.1,48.9,62,29.98,10.0,WSW,11.5,-,N/A,,Clear,250,2013-10-12 22:53:00
6:53 PM,57.0,46.9,69,30.02,10.0,West,9.2,-,N/A,,Clear,260,2013-10-12 23:53:00
7:53 PM,53.1,45.0,74,30.05,10.0,WSW,5.8,-,N/A,,Clear,250,2013-10-13 00:53:00
8:53 PM,54.0,44.1,69,30.08,10.0,West,6.9,-,N/A,,Clear,270,2013-10-13 01:53:00
9:53 PM,50.0,43.0,77,30.10,10.0,WSW,4.6,-,N/A,,Clear,250,2013-10-13 02:53:00
10:53 PM,52.0,41.0,66,30.13,10.0,West,8.1,-,N/A,,Clear,270,2013-10-13 03:53:00
11:53 PM,46.9,41.0,80,30.14,10.0,WSW,4.6,-,N/A,,Clear,240,2013-10-13 04:53:00